Regional Weather Roundup
Issued by NWS Cleveland, OH

Home | Current Version | Previous Version | Graphics & Text | Print | Product List | Glossary On
Versions: 1 2 3 4 5 6 7 8 9 10 11 12 13 14 15 16 17 18 19 20 21 22 23 24 25 26 27 28 29 30 31 32 33 34 35 36 37 38 39 40 41 42 43 44 45 46 47 48 49 50
000
ASUS41 KCLE 300900
RWRCLE
OHIO REGIONAL WEATHER ROUNDUP
NATIONAL WEATHER SERVICE WILMINGTON, OH
500 AM EDT MON MAY 30 2016

NOTE: "FAIR" INDICATES FEW OR NO CLOUDS BELOW 12,000 FEET WITH NO
SIGNIFICANT WEATHER AND/OR OBSTRUCTIONS TO VISIBILITY.

OHZ001>008-015>018-024>027-034-035-043-044-301000-
   NORTHWEST OHIO

CITY           SKY/WX    TMP DP  RH WIND       PRES   REMARKS
DEFIANCE       FAIR      62  55  77 CALM      30.01S
FINDLAY        FAIR      61  55  81 CALM      30.00S
TOLEDO EXPRESS FAIR      61  56  83 SW3       29.99S
TOLEDO EXEC    FAIR      62  54  74 CALM      30.00S
LIMA           FAIR      63  57  81 CALM      30.02R
$$

OHZ009>014-019>023-028>033-038-089-301000-
   NORTHEAST OHIO

CITY           SKY/WX    TMP DP  RH WIND       PRES   REMARKS
CLE-HOPKINS    FAIR      64  60  87 SW6       30.02R
CLE-LAKEFRONT  FAIR      67  60  78 S7        29.98R
CUY CO. ARPT   NOT AVBL
LORAIN-ELYRIA  FAIR      60  58  92 W3        30.00S
ASHTABULA      FAIR      63  61  93 SW5       30.00R
AKRON-CANTON   FAIR      63  61  93 W5        30.01R FOG
WOOSTER        NOT AVBL
MANSFIELD      FAIR      61  60  97 SW3       30.02S
YOUNGSTOWN     MOCLDY    64  62  93 S6        30.00R
$$

OHZ042-051>053-060>062-070>072-077>081-301000-
  SOUTHWEST OHIO

CITY           SKY/WX    TMP DP  RH WIND       PRES   REMARKS
CINC-COVINGTON CLOUDY    66  64  93 S3        30.03F
CINC-LUNKEN    FAIR      64  64 100 CALM      30.03F
HAMILTON       FAIR      65  63  93 CALM      30.03S
DAYTON         NOT AVBL
WRIGHT-PAT AFB CLEAR     63  63 100 CALM      30.02S FOG
DAYTON GENERAL FAIR      65  62  90 S5        30.02S
WILMINGTON     FAIR      63  62  97 W6        30.03S
$$

OHZ036-037-039>041-045>050-054>059-063>069-073>076-082>088-301000-
  CENTRAL AND SOUTHEAST OHIO

CITY           SKY/WX    TMP DP  RH WIND       PRES   REMARKS
COLUMBUS       MOCLDY    62  62 100 CALM      30.00F
OSU AIRPORT    FAIR      63  61  93 CALM      30.01S
BOLTON FIELD   NOT AVBL
RICKENBACK AFB NOT AVBL
NEWARK         FAIR      62  59  90 CALM      30.00S
MARION         FAIR      61  59  93 S3        30.02R
LANCASTER      FAIR      64  60  87 CALM      30.01S
ZANESVILLE     FAIR      67  62  84 CALM      30.02R
NEW PHILLY     FAIR      65  62  90 CALM      30.02R FOG
$$




USA.gov is the U.S. government's official web portal to all federal, state and local government web resources and services.